Presure
182 181 180 165 177 177 176 178 179 181 186 190 188 190 183 184 185 180 187 189 193 207 215 227 273 282 271 274 270 252 246 235 234 230 229 165 206 163
187 172 173 164 159 173 182 187 188 189 186 183 187 181 177 185 185 186 185 195 215 217 264 287 292 293 285 271 264 257 248 244 235 238 241 227 214 207
171 171 174 177 181 184 184 185 188 184 181 180 188 184 184 184 190 183 207 213 237 304 305 306 306 301 292 288 272 262 171 145 204 241 234 226 226 213
178 181 184 181 180 181 180 177 183 182 183 182 188 185 193 196 204 212 236 258 312 308 309 273 249 242 238 236 273 277 276 266 255 246 244 237 249 225
175 181 182 176 180 183 184 184 184 187 190 195 193 206 209 223 269 280 279 307 306 284 253 241 227 224 211 214 204 208 208 207 251 264 262 258 251 262
175 177 179 190 184 191 183 182 186 192 200 215 221 236 266 264 310 307 303 281 251 127 229 221 213 210 206 204 202 200 203 206 204 199 199 211 244 250
189 200 191 190 181 187 204 205 203 220 219 237 261 289 295 317 303 281 253 236 143 209 205 206 208 213 208 201 203 205 211 212 215 216 215 206 205 207
206 209 211 206 201 210 214 217 222 229 261 287 265 248 303 276 246 235 220 202 197 215 209 195 213 204 215 218 221 224 228 231 230 229 227 229 221 220
212 216 213 213 213 218 220 231 241 263 274 307 289 280 236 227 217 213 214 215 214 217 224 221 224 224 228 233 238 242 245 248 250 249 245 247 250 242
207 209 214 215 219 224 239 276 304 308 192 257 232 217 217 215 216 217 217 224 226 229 234 239 240 250 378 395 428 365 360 354 350 354 359 364 375 338
211 213 225 239 255 285 297 306 281 226 225 214 214 216 218 223 224 226 226 229 235 238 261 322 495 266 342 429 430 426 359 330 448 452 455 457 450 474
236 236 275 293 310 302 247 225 218 214 209 213 217 220 219 226 230 236 243 257 279 326 453 347 331 415 405 306 424 423 419 416 421 422 429 536 537 544
296 312 318 281 224 215 205 212 208 206 213 216 218 225 229 233 249 263 279 340 423 344 322 403 392 380 397 424 409 396 392 389 455 445 450 503 512 513
252 218 213 207 204 211 214 206 213 212 214 222 224 235 254 261 279 319 390 329 333 392 384 376 432 415 400 383 375 367 409 431 427 427 420 380 496 491
199 202 206 214 210 214 211 215 214 222 226 242 251 262 284 292 379 310 317 391 373 360 421 402 391 375 362 358 366 435 412 399 419 457 426 428 435 493
208 212 210 214 210 215 214 220 230 241 251 258 285 286 312 282 314 394 378 364 412 388 374 365 355 348 344 413 422 418 448 446 467 465 449 412 426 484
209 213 216 215 220 227 232 246 258 254 279 280 293 293 316 316 386 367 354 386 368 354 342 339 348 353 397 405 411 440 437 423 437 457 447 404 412 464
217 223 228 224 237 249 261 251 279 270 282 294 331 298 404 375 359 373 369 352 342 343 351 351 387 391 395 377 409 434 427 415 423 442 429 396 401 451
227 233 242 251 259 260 272 279 272 290 336 303 418 390 367 350 373 359 348 356 350 348 358 397 391 345 390 395 398 412 418 406 415 427 407 396 392 442
241 251 243 266 266 275 273 282 274 343 324 412 382 361 346 364 350 348 348 364 388 393 394 377 359 395 388 399 399 392 405 404 413 411 403 386 386 435
238 262 260 264 267 263 279 308 326 402 400 372 352 340 372 343 340 364 400 398 402 389 346 387 391 381 390 393 396 389 385 392 389 391 390 383 380 409
258 250 262 271 280 289 289 373 420 391 365 346 340 362 336 340 364 410 408 400 357 382 384 385 370 364 373 388 386 393 385 379 375 378 388 392 396 398
265 260 284 284 279 373 405 410 378 353 337 371 351 332 342 422 423 412 371 373 381 391 376 374 375 376 366 369 379 388 395 389 384 389 405 418 445 434
Wind_Speed
81 82 83 82 84 85 86 86 86 90 92 92 93 92 90 90 89 85 89 90 92 95 98 99 89 83 80 78 74 73 72 71 71 72 74 57 72 57
85 85 86 87 87 89 91 93 94 95 96 96 96 95 93 98 95 96 90 98 105 103 96 88 80 74 74 73 73 75 74 74 73 74 77 78 77 75
88 89 90 90 93 94 95 97 98 98 98 99 102 101 103 100 103 93 110 109 109 87 79 70 67 65 66 67 70 71 64 61 70 77 77 77 81 79
93 94 95 95 96 98 98 99 101 102 103 104 107 107 111 113 113 113 113 108 82 75 66 62 64 62 61 61 61 64 67 72 76 78 80 81 84 85
97 98 99 98 100 103 103 105 107 109 111 112 113 117 117 118 117 108 100 80 70 65 66 67 71 72 71 70 69 68 68 68 71 75 79 82 84 86
101 102 102 104 105 107 107 108 112 115 116 118 118 121 119 114 93 85 73 71 71 68 75 77 78 78 79 80 83 83 80 79 78 79 79 78 83 87
105 104 107 107 108 111 113 115 116 120 119 126 124 116 103 88 79 75 74 78 70 83 82 87 89 89 90 92 92 92 92 92 92 90 87 87 87 86
106 108 109 108 110 113 115 120 122 129 130 120 114 107 85 80 78 81 84 84 86 93 89 95 97 98 103 107 108 106 106 106 104 104 103 103 97 96
111 115 111 113 116 123 123 131 132 119 117 91 91 83 86 90 88 89 92 94 97 101 104 106 109 109 113 117 120 122 122 120 118 115 112 113 114 113
109 111 121 122 126 129 133 127 103 90 70 87 90 91 93 94 96 99 102 106 110 114 116 115 117 120 98 98 94 109 108 109 108 107 108 109 110 116
122 121 134 133 131 119 105 91 89 86 93 92 95 97 100 105 108 110 113 116 119 121 131 126 72 103 107 81 80 84 103 106 78 76 75 75 78 75
134 128 124 116 103 90 86 92 94 95 93 98 102 107 109 114 117 121 125 128 130 126 80 111 110 84 80 102 73 74 75 76 75 74 72 48 47 46
109 95 88 87 88 93 90 94 93 94 100 104 109 114 118 122 128 132 133 123 92 112 115 85 83 84 79 63 65 72 74 73 57 58 56 46 44 44
83 85 88 90 91 95 97 94 101 102 105 112 115 121 126 130 132 132 106 117 112 86 86 87 61 63 63 64 65 69 63 56 56 54 51 42 40 41
85 88 93 97 94 99 100 105 106 111 114 119 122 125 126 125 108 119 118 86 88 91 61 64 62 63 66 67 67 52 51 52 53 47 46 43 40 35
93 96 97 100 100 105 106 110 114 116 119 121 122 120 128 116 118 85 87 88 58 62 65 66 67 67 69 59 55 51 46 44 38 38 37 40 37 29
97 99 102 104 107 110 111 115 119 118 121 119 122 112 116 116 81 86 88 62 65 66 69 71 70 70 60 56 53 49 43 40 39 34 31 36 33 24
102 103 104 105 109 114 117 114 121 114 119 127 113 117 75 81 83 72 67 69 70 71 70 69 59 53 51 54 54 47 42 37 35 30 28 31 30 21
102 104 108 112 115 114 120 118 114 128 110 119 72 75 80 82 68 69 70 68 68 69 67 55 50 48 45 43 46 48 37 35 32 28 25 26 27 19
105 110 104 115 113 117 114 124 114 106 111 69 74 77 79 67 69 69 70 67 58 53 48 49 47 42 43 39 37 41 37 29 27 26 23 24 25 18
101 112 109 111 112 107 119 112 110 76 67 72 75 77 62 65 68 67 55 51 45 43 44 42 41 40 39 36 35 35 34 29 25 24 23 23 24 21
106 104 109 116 121 112 115 87 64 66 69 72 72 61 63 65 64 48 43 39 41 41 38 37 39 37 36 34 33 32 32 30 27 26 26 25 24 23
110 106 126 120 115 86 71 61 65 67 69 57 58 59 62 45 39 36 37 38 36 33 34 34 35 35 34 32 31 31 30 29 27 27 26 25 26 27
Wind_Direction
278 279 280 279 283 284 285 286 288 289 290 291 291 293 293 293 293 293 294 295 295 297 297 296 292 284 282 276 271 267 265 263 260 258 256 260 256 262
276 277 278 277 280 282 285 286 287 288 289 290 291 291 292 292 294 294 294 296 296 296 298 292 287 282 278 274 271 267 265 263 261 258 255 253 253 253
273 274 277 279 281 283 284 285 286 287 287 289 290 291 290 293 292 294 293 294 298 294 291 287 284 281 278 274 271 269 273 273 264 260 255 257 251 251
274 276 278 279 280 281 283 284 285 286 287 287 289 289 290 290 291 292 295 298 293 290 286 284 286 286 284 281 279 274 270 266 265 262 259 256 254 250
274 275 276 279 280 281 283 284 285 286 286 287 287 289 290 292 298 298 297 292 290 287 286 285 287 287 285 282 275 273 271 269 268 263 261 259 257 256
275 276 278 278 279 281 283 285 285 285 287 290 291 294 298 297 296 293 291 290 289 288 289 289 287 285 282 279 276 274 271 269 265 263 263 261 259 257
272 274 276 278 281 281 283 284 284 293 292 296 297 298 297 293 293 293 290 288 291 291 289 289 287 286 281 276 275 274 274 273 272 267 263 260 260 257
277 279 281 281 281 285 289 290 293 295 297 297 296 294 296 295 292 290 292 290 286 290 288 281 286 282 283 281 280 278 277 274 271 269 268 267 265 260
281 285 285 287 289 289 291 293 294 295 296 293 294 293 292 293 293 294 295 293 291 290 288 286 284 284 284 282 282 281 279 276 274 272 270 267 263 261
282 285 288 288 289 290 292 292 294 293 294 291 292 295 295 296 297 295 293 294 292 290 288 287 287 287 289 288 289 284 281 278 275 272 269 266 263 260
284 287 286 286 288 289 293 290 290 290 292 295 296 297 298 297 296 296 294 292 291 291 290 296 296 289 293 291 289 287 282 278 286 284 281 277 272 269
282 283 284 284 289 289 286 287 291 295 296 297 298 298 297 297 296 294 292 293 294 300 297 299 298 297 295 289 293 292 291 290 289 286 284 296 289 285
281 280 282 283 284 286 291 293 292 294 297 298 298 298 297 296 296 296 297 302 302 301 300 299 298 297 297 298 295 292 291 290 291 289 292 298 292 287
277 279 282 284 287 289 292 293 295 297 297 298 297 296 298 296 298 303 304 303 304 302 301 301 303 301 299 298 296 294 295 295 292 290 289 292 296 288
283 284 285 285 291 291 294 294 296 296 296 297 298 297 299 301 304 304 305 304 304 303 305 305 305 303 301 300 300 302 296 293 292 293 290 290 287 292
283 283 287 288 293 292 294 295 295 297 298 297 300 301 304 300 305 305 305 305 306 306 305 305 305 304 303 307 307 306 307 306 304 295 288 286 289 294
285 286 287 290 291 292 293 296 299 298 300 300 304 302 305 305 306 305 305 306 306 305 304 305 307 308 309 310 309 311 309 307 304 299 289 283 288 290
284 287 289 290 293 295 298 297 301 297 303 306 304 305 307 306 305 306 306 305 305 305 306 306 308 309 311 309 311 313 314 310 303 299 290 283 285 280
288 289 291 294 297 299 299 302 300 306 304 305 307 307 306 305 307 306 306 307 306 306 306 306 309 306 311 312 312 313 318 311 305 298 291 285 283 268
291 293 293 298 299 300 301 304 303 304 305 306 305 305 304 305 306 307 307 306 304 305 305 307 310 313 314 316 315 311 316 315 310 302 296 285 284 267
290 295 296 298 298 299 303 302 303 305 305 305 303 303 303 305 307 308 305 304 305 305 308 309 312 315 316 318 319 315 314 313 308 302 296 287 284 276
294 293 298 301 301 301 301 304 304 304 303 303 302 304 304 307 308 304 305 306 309 309 312 313 313 314 317 320 320 319 312 309 303 300 298 293 289 278
298 297 299 298 299 304 304 303 302 302 301 303 304 305 307 304 304 306 308 310 311 312 314 314 315 315 316 320 321 322 318 313 311 311 309 299 285 274